Regional Weather Roundup
Issued by NWS

Home | Current Version | Previous Version | Graphics & Text | Print | Product List | Glossary On
Versions: 1 2 3 4 5 6 7 8 9 10 11 12 13 14 15 16 17 18 19 20 21 22 23 24 25 26 27 28 29 30 31 32 33 34 35 36 37 38 39 40 41 42 43 44 45 46 47 48 49 50
000
ASUS43 KFSD 261510
RWRSD

WEATHER ROUNDUP FOR SOUTH DAKOTA
NATIONAL WEATHER SERVICE SIOUX FALLS SD
1000 AM CDT THU MAR 26 2015

NOTE: "FAIR" INDICATES FEW OR NO CLOUDS BELOW 12,000 FEET WITH NO
SIGNIFICANT WEATHER AND/OR OBSTRUCTIONS TO VISIBILITY.


SDZ001>005-009-010-012>017-261600-
NORTHWEST AND NORTH CENTRAL SOUTH DAKOTA

CITY           SKY/WX    TMP DP  RH WIND       PRES   REMARKS
BUFFALO          N/A     33  27  78 NE14      30.03R WCI  23
FAITH            N/A     30  26  85 E5        30.10R WCI  25
MOBRIDGE       LGT SNOW  29  23  78 CALM      30.15R
$$

SDZ012>016-024>037-041>051-057-063-072>074-261600-
SOUTHWEST AND SOUTH CENTRAL SOUTH DAKOTA

CITY           SKY/WX    TMP DP  RH WIND       PRES   REMARKS
RAPID CTY ARPT CLOUDY    50  28  42 NW22G36   30.05F
PIERRE         LGT SNOW  26  23  88 E5        30.15S VSB 3/4 WCI  20
CUSTER         PTSUNNY   36  26  67 NW15G26   30.06S
ELLSWORTH AFB  CLOUDY    49  28  45 NW20G30   30.04S
PHILIP         CLOUDY    30  22  72 NE9       30.09S WCI  22
PINE RIDGE     CLOUDY    41  27  57 W12       30.10S
SPEARFISH      FAIR      43  28  56 W17G25    30.09R
WINNER         CLOUDY    36  24  62 SE9       30.13F
$$

SDZ004>011-016>023-039-040-261600-
NORTHEAST SOUTH DAKOTA

CITY           SKY/WX    TMP DP  RH WIND       PRES   REMARKS
ABERDEEN       CLOUDY    31  24  75 NE6       30.21S WCI  25
WATERTOWN      PTSUNNY   30  22  72 N9        30.17S WCI  22
SISSETON         N/A     28  24  85 NE12      30.21S WCI  18
$$

SDZ017-020-022-023-036>040-048>070-261600-
SOUTHEAST SOUTH DAKOTA

CITY           SKY/WX    TMP DP  RH WIND       PRES   REMARKS
SIOUX FALLS    PTSUNNY   36  24  62 N9        30.19R
HURON          CLOUDY    29  22  75 N5        30.20F WCI  24
CHAMBERLAIN    CLOUDY    29  24  84 SE3       30.17F
MITCHELL       MOSUNNY   31  22  69 N3        30.21F
YANKTON        SUNNY     34  21  60 NW6       30.22F WCI  29
$$

ABBREVIATIONS USED IN REMARKS
   TC - TEMPERATURE IN CELSIUS
  WCI - WIND CHILL INDEX
   HX - HEAT INDEX
  VSB - VISIBILITY



USA.gov is the U.S. government's official web portal to all federal, state and local government web resources and services.